Вернуться в каталог

HULIANWANG DIGUI-38

АктивенСвязьPO
NORAD 64959·PAYLOAD·🇨🇳 China

Запущен Jul 27, 2025 с Taiyuan Satellite Launch Center

Loading…

Ближайшие Пролёты (ближайшие 24 часа)

TLE

СвежийSource: Space-Track

Эпоха: Sep 14, 2026, 21:47 UTC

1 64959U 25159D   26257.90827246 -.00000075  00000-0 -20983-3 0  9994
2 64959  86.4914 252.1700 0001994  90.0964 270.0399 13.24404075 55005

Отслеживайте HULIANWANG DIGUI-38 в реальном времени с AllMySat

Download on the App Store